Alexandria, Egypt

3:52 AM EET on May 28, 2017 (GMT +0200)
Alexandria

Weather History for HEAX - October, 2011

Change the Weather History Date:

Monday, October 31, 2011

  Actual Average Record
Temperature  
Mean Temperature 68 °F -  
Max Temperature 73 °F 72 °F 89 °F (2003)
Min Temperature 64 °F 57 °F 55 °F (1996)
Cooling Degree Days 4    
Growing Degree Days 18 (Base 50)    
Moisture  
Dew Point 51 °F    
Average Humidity 50    
Maximum Humidity 64    
Minimum Humidity 32    
Precipitation  
Precipitation 0.00 in 0.04 in - ()
Sea Level Pressure  
Sea Level Pressure 30.03 in    
Wind  
Wind Speed 8 mph ()    
Max Wind Speed 12 mph    
Max Gust Speed -    
Visibility 6.2 miles    
Events      
Averages and records for this station are not official NWS values.
T = Trace of Precipitation, MM = Missing Value Source: Averaged Metar Reports

Daily Weather History Graph

Daily Weather History Graph

Search for Another Location

Airport or City:

Trip Planner

Search our weather history database for the weather conditions in past years. The results will help you decide how hot, cold, wet, or windy it might be!

Date:

Astronomy

Oct. 31, 2011 Rise Set
Actual Time 6:14 AM EET 5:12 PM EET
Civil Twilight 5:49 AM EET 5:37 PM EET
Nautical Twilight 5:20 AM EET 6:06 PM EET
Astronomical Twilight 4:52 AM EET 6:34 PM EET
Moon 10:57 AM EET (10/31) 9:34 PM EET (10/31)
Length of Visible Light 11h 48m
Length of Day
10h 58m
Waxing Crescent, 27% of the Moon is Illuminated
Oct 31
Waxing Crescent
Nov 2
First Quarter
Nov 10
Full
Nov 18
Last Quarter
Nov 25
New

Hourly Weather History & Observations

Time (EET) Temp. Dew Point Humidity Pressure Visibility Wind Dir Wind Speed Gust Speed Precip Events Conditions
12:00 AM 68.0 °F 51.8 °F 56% 30.01 in 6.2 mi NW 11.5 mph - N/A   Scattered Clouds
1:00 AM 68.0 °F 51.8 °F 56% 30.01 in 6.2 mi NNW 9.2 mph - N/A   Scattered Clouds
2:00 AM 67 °F 52 °F 48% 30.01 in 6 mi NNW 9.2 mph - -   Partly Cloudy
2:00 AM 68.0 °F 51.8 °F 56% 30.01 in 6.2 mi NNW 8.1 mph - N/A   Scattered Clouds
3:00 AM 66.2 °F 50.0 °F 56% 30.01 in 6.2 mi North 8.1 mph - N/A   Scattered Clouds
4:00 AM 66.2 °F 51.8 °F 60% 30.01 in 6.2 mi NW 9.2 mph - N/A   Scattered Clouds
5:00 AM 66.2 °F 51.8 °F 60% 30.01 in 6.2 mi NNW 8.1 mph - N/A   Scattered Clouds
6:00 AM 64.4 °F 51.8 °F 64% 30.01 in 6.2 mi NNW 6.9 mph - N/A   Scattered Clouds
7:00 AM 66.2 °F 50.0 °F 56% 30.01 in 6.2 mi North 9.2 mph - N/A   Scattered Clouds
8:00 AM 69 °F 49 °F 38% 30.04 in 6 mi NW 11.5 mph - -   Partly Cloudy
8:00 AM 69.8 °F 48.2 °F 46% 30.04 in 6.2 mi NW 11.5 mph - N/A   Scattered Clouds
9:00 AM 71.6 °F 50.0 °F 46% 30.04 in 6.2 mi North 8.1 mph - N/A   Partly Cloudy
10:00 AM 71.6 °F 48.2 °F 43% 30.06 in 6.2 mi North 8.1 mph - N/A   Scattered Clouds
11:00 AM 73.4 °F 50.0 °F 44% 30.04 in 6.2 mi NNW 9.2 mph - N/A   Partly Cloudy
12:00 PM 73.4 °F 51.8 °F 47% 30.04 in 6.2 mi NW 10.4 mph - N/A   Partly Cloudy
1:00 PM 73.4 °F 50.0 °F 44% 30.01 in 6.2 mi NNW 11.5 mph - N/A   Partly Cloudy
2:00 PM 73 °F 49 °F 32% 30.02 in 6 mi NNW 9.2 mph - -   Scattered Clouds
2:00 PM 73.4 °F 50.0 °F 44% 30.01 in 6.2 mi NNW 9.2 mph - N/A   Partly Cloudy
3:00 PM 73.4 °F 51.8 °F 47% 30.01 in 6.2 mi NW 9.2 mph - N/A   Partly Cloudy
4:00 PM 71.6 °F 51.8 °F 50% 30.01 in 6.2 mi NNW 8.1 mph - N/A   Partly Cloudy
5:00 PM 69.8 °F 53.6 °F 56% 30.01 in 6.2 mi NNW 6.9 mph - N/A   Partly Cloudy
7:00 PM 69.8 °F 51.8 °F 53% 30.04 in 6.2 mi NNE 5.8 mph - N/A   Partly Cloudy
8:00 PM 69 °F 52 °F 43% 30.06 in 6 mi North 8.1 mph - -   Scattered Clouds
8:00 PM 69.8 °F 51.8 °F 53% 30.06 in 6.2 mi North 8.1 mph - N/A   Partly Cloudy
9:00 PM 68.0 °F 50.0 °F 52% 30.06 in 6.2 mi North 5.8 mph - N/A   Partly Cloudy
10:00 PM 68.0 °F 48.2 °F 49% 30.06 in 6.2 mi North 4.6 mph - N/A   Scattered Clouds
11:00 PM 66.2 °F 50.0 °F 56% 30.06 in 6.2 mi NE 2.3 mph - N/A   Scattered Clouds